FW6261 Weather Reports


time (UTC)temp
F
wind
direction
speed
knots
gust
knots
rain 1hr
in
rain 24hr
in
rain mn
in
humidity
%
barometer
mb
20260510202524 74 254 5.2 11.3 0.00 0.07 0.00 56 1011.8
20260510202024 74 223 3.5 12.2 0.00 0.07 0.00 55 1011.8
20260510201538 75 229 7.0 12.2 0.00 0.07 0.00 53 1011.9
20260510201022 75 221 5.2 11.3 0.00 0.07 0.00 53 1011.8
20260510200522 76 287 5.2 9.6 0.00 0.07 0.00 52 1011.8
20260510200046 76 227 3.5 9.6 0.00 0.07 0.00 53 1011.7
20260510195526 76 273 1.7 10.4 0.00 0.07 0.00 52 1011.6
20260510195022 76 264 3.5 10.4 0.00 0.07 0.00 53 1011.8
20260510194545 76 234 4.3 13.0 0.00 0.07 0.00 52 1011.8
20260510194022 76 248 7.0 13.0 0.00 0.07 0.00 51 1011.7
20260510193522 76 220 4.3 13.0 0.00 0.07 0.00 52 1011.8
20260510193042 77 242 6.1 13.0 0.00 0.07 0.00 51 1011.9
20260510192522 77 294 7.0 13.0 0.00 0.07 0.00 50 1012.0
20260510192022 77 236 5.2 9.6 0.00 0.07 0.00 49 1011.8
20260510191542 77 225 3.5 11.3 0.00 0.07 0.00 50 1011.8
20260510191022 76 179 3.5 11.3 0.00 0.07 0.00 50 1011.9
20260510190522 76 257 5.2 11.3 0.00 0.07 0.00 52 1011.8
20260510190042 76 253 5.2 9.6 0.00 0.07 0.00 53 1011.9
20260510185522 75 291 2.6 12.2 0.00 0.07 0.00 52 1011.9
20260510185023 75 277 5.2 12.2 0.00 0.07 0.00 53 1012.0
20260510184539 75 286 7.0 12.2 0.00 0.07 0.00 52 1012.1
20260510184022 76 251 6.1 12.2 0.00 0.07 0.00 52 1012.1
20260510183522 76 209 6.1 12.2 0.00 0.07 0.00 52 1012.0
20260510183037 76 279 6.1 12.2 0.00 0.07 0.00 54 1012.0
20260510182522 75 279 5.2 9.6 0.00 0.07 0.00 55 1012.0
20260510182022 75 266 3.5 13.0 0.00 0.07 0.00 55 1012.0
20260510181541 75 223 6.1 13.0 0.00 0.07 0.00 55 1011.9
20260510181022 76 223 5.2 11.3 0.00 0.07 0.00 55 1012.0
20260510180522 76 271 7.0 11.3 0.00 0.07 0.00 56 1012.1
20260510180045 76 205 4.3 10.4 0.00 0.07 0.00 57 1011.9
20260510175522 76 234 0.9 9.6 0.00 0.07 0.00 58 1011.9
20260510175022 75 246 2.6 9.6 0.00 0.07 0.00 59 1012.0
20260510174537 75 184 2.6 9.6 0.00 0.07 0.00 58 1012.0
20260510174024 75 292 2.6 7.0 0.00 0.07 0.00 60 1012.0
20260510173522 75 218 3.5 7.0 0.00 0.07 0.00 60 1012.0
20260510173038 75 209 0.9 6.1 0.00 0.07 0.00 62 1011.9
20260510172525 74 205 1.7 6.1 0.00 0.07 0.00 64 1011.9
20260510172021 73 227 1.7 5.2 0.00 0.07 0.00 63 1011.8
20260510171546 74 252 1.7 4.3 0.00 0.07 0.00 63 1011.8
20260510171022 73 239 0.0 7.8 0.00 0.07 0.00 65 1011.9
20260510170522 73 236 3.5 7.8 0.00 0.07 0.00 63 1011.9
20260510170103 73 220 0.9 7.0 0.00 0.07 0.00 65 1011.8
20260510165522 73 243 0.0 4.3 0.00 0.07 0.00 66 1012.0
20260510165024 72 169 0.9 5.2 0.00 0.07 0.00 66 1012.1
20260510164558 72 254 0.9 5.2 0.00 0.07 0.00 67 1012.0
20260510164021 71 0 0.9 6.1 0.00 0.07 0.00 68 1012.2
20260510163522 71 239 0.9 6.1 0.00 0.07 0.00 69 1012.2
20260510163040 70 218 0.9 5.2 0.00 0.07 0.00 70 1012.2
20260510162523 69 241 0.9 3.5 0.00 0.07 0.00 70 1012.2
20260510162022 69 265 0.9 3.5 0.00 0.07 0.00 73 1012.3
20260510161537 69 97 1.7 3.5 0.00 0.07 0.00 72 1012.3
20260510161023 68 88 0.9 3.5 0.00 0.07 0.00 72 1012.2
20260510160523 68 311 0.9 4.3 0.00 0.07 0.00 73 1012.4
20260510160036 68 0 0.9 4.3 0.00 0.07 0.00 73 1012.3
20260510155522 68 306 0.0 3.5 0.00 0.07 0.00 74 1012.4
20260510155022 67 75 0.9 3.5 0.00 0.07 0.00 76 1012.7
20260510154541 66 0 0.9 3.5 0.00 0.07 0.00 76 1012.7
20260510154021 65 268 0.0 4.3 0.00 0.07 0.00 79 1012.8
20260510153526 64 211 1.7 4.3 0.00 0.07 0.00 80 1012.7
20260510153050 64 82 1.7 3.5 0.00 0.07 0.00 81 1012.7
20260510152522 64 88 0.9 3.5 0.00 0.07 0.00 83 1012.9
20260510152022 63 0 0.0 3.5 0.00 0.07 0.00 84 1013.0
20260510151542 62 208 0.0 4.3 0.00 0.07 0.00 86 1013.0
20260510151022 61 0 0.0 4.3 0.00 0.07 0.00 88 1013.0
20260510150522 60 0 0.0 4.3 0.00 0.07 0.00 90 1012.9
20260510150042 59 0 0.9 4.3 0.00 0.07 0.00 90 1012.9
20260510145521 58 0 0.0 3.5 0.00 0.07 0.00 91 1012.9
20260510145021 58 0 0.9 4.3 0.00 0.07 0.00 91 1012.8
20260510144538 58 0 0.0 4.3 0.00 0.07 0.00 91 1012.9
20260510144022 57 75 0.0 3.5 0.00 0.07 0.00 91 1013.0
20260510143519 57 0 0.9 3.5 0.00 0.07 0.00 91 1013.1
20260510143041 57 0 0.0 2.6 0.00 0.07 0.00 91 1013.0
20260510142521 57 0 0.0 2.6 0.00 0.07 0.00 91 1013.0
20260510142021 57 128 0.9 2.6 0.00 0.07 0.00 91 1012.9
20260510141544 57 0 0.0 2.6 0.00 0.07 0.00 92 1012.8
20260510141021 56 0 0.0 4.3 0.00 0.07 0.00 92 1012.7
20260510140523 56 0 0.0 4.3 0.00 0.07 0.00 92 1012.8
20260510140037 56 360 0.0 1.7 0.00 0.07 0.00 92 1012.7
20260510135524 55 0 0.0 2.6 0.00 0.07 0.00 92 1012.7
20260510135022 55 0 0.0 2.6 0.00 0.07 0.00 92 1012.7
20260510134541 55 0 0.0 1.7 0.00 0.07 0.00 92 1012.6
20260510134020 55 0 0.0 1.7 0.00 0.07 0.00 92 1012.7
20260510133521 55 360 0.0 2.6 0.00 0.07 0.00 92 1012.7
20260510133037 55 0 0.0 2.6 0.00 0.07 0.00 92 1012.8
20260510132522 55 0 0.9 2.6 0.00 0.07 0.00 92 1012.9
20260510132021 55 0 0.9 2.6 0.00 0.07 0.00 92 1012.9
20260510131537 55 0 0.0 2.6 0.00 0.07 0.00 92 1013.0
20260510131022 55 0 0.0 2.6 0.00 0.07 0.00 92 1013.0
20260510130521 54 0 0.0 0.0 0.00 0.07 0.00 92 1013.0
20260510130047 54 0 0.0 0.0 0.00 0.07 0.00 92 1013.0
20260510125522 54 0 0.0 0.9 0.00 0.07 0.00 92 1012.7
20260510125025 54 0 0.0 1.7 0.00 0.07 0.00 92 1012.5
20260510124556 54 0 0.0 1.7 0.00 0.07 0.00 92 1012.4
20260510124022 54 0 0.0 1.7 0.00 0.07 0.00 92 1012.5
20260510123521 54 0 0.0 2.6 0.00 0.07 0.00 92 1012.4
20260510123041 53 360 0.0 3.5 0.00 0.07 0.00 92 1012.2
20260510122521 54 360 0.0 3.5 0.00 0.07 0.00 92 1012.2
20260510122021 53 360 0.9 3.5 0.00 0.07 0.00 92 1012.3
20260510121542 53 0 0.0 2.6 0.00 0.07 0.00 92 1011.9
20260510121022 53 0 0.0 2.6 0.00 0.07 0.00 92 1011.9
20260510120522 53 360 0.0 1.7 0.00 0.07 0.00 92 1011.8
20260510120039 53 360 0.0 1.7 0.00 0.07 0.00 92 1011.8
20260510115523 53 0 0.0 0.9 0.00 0.07 0.00 92 1011.8
20260510115021 52 0 0.0 1.7 0.00 0.07 0.00 92 1011.8
20260510114536 52 0 0.0 1.7 0.00 0.07 0.00 92 1011.9
20260510114022 52 0 0.0 1.7 0.00 0.07 0.00 92 1011.8
20260510113521 52 0 0.0 1.7 0.00 0.07 0.00 92 1012.0
20260510113039 52 360 0.0 0.9 0.00 0.07 0.00 92 1011.9
20260510112522 52 0 0.0 1.7 0.00 0.07 0.00 92 1011.9
20260510112022 52 0 0.0 1.7 0.00 0.07 0.00 92 1012.0
20260510111541 51 0 0.0 2.6 0.00 0.07 0.00 92 1011.9
20260510111022 51 0 0.9 2.6 0.00 0.07 0.00 91 1011.9
20260510110522 51 360 0.9 2.6 0.00 0.07 0.00 91 1011.7
20260510110043 51 360 0.0 2.6 0.00 0.07 0.00 91 1011.7
20260510105522 51 0 0.0 1.7 0.00 0.07 0.00 92 1011.4
20260510105022 51 0 0.0 1.7 0.00 0.07 0.00 91 1011.4
20260510104538 51 0 0.0 1.7 0.00 0.07 0.00 92 1011.3
20260510104021 51 360 0.0 1.7 0.00 0.07 0.00 91 1011.2
20260510103523 51 0 0.0 0.0 0.00 0.07 0.00 91 1011.3
20260510103037 51 0 0.0 0.0 0.00 0.07 0.00 91 1011.2
20260510102521 51 0 0.0 0.0 0.00 0.07 0.00 91 1011.3
20260510102022 51 0 0.0 0.0 0.00 0.07 0.00 91 1011.3
20260510101539 51 0 0.0 0.0 0.00 0.07 0.00 91 1011.2
20260510101021 51 0 0.0 0.0 0.00 0.07 0.00 91 1011.2
20260510100525 51 0 0.0 0.0 0.00 0.07 0.00 91 1011.2
20260510100043 51 0 0.0 0.0 0.00 0.07 0.00 91 1011.0
20260510095522 51 0 0.0 0.0 0.00 0.07 0.00 91 1011.1
20260510095021 51 0 0.0 0.0 0.00 0.07 0.00 91 1011.0
20260510094541 51 0 0.0 0.0 0.00 0.07 0.00 91 1011.0
20260510094022 51 0 0.0 0.0 0.00 0.07 0.00 91 1011.1
20260510093522 51 0 0.0 0.0 0.00 0.07 0.00 91 1011.1
20260510093040 51 0 0.0 0.0 0.00 0.07 0.00 91 1011.2
20260510092522 51 0 0.0 0.9 0.00 0.07 0.00 91 1011.2
20260510092022 51 0 0.0 0.9 0.00 0.07 0.00 91 1011.3
20260510091539 51 0 0.0 0.9 0.00 0.07 0.00 91 1011.2
20260510091021 51 0 0.0 0.9 0.00 0.07 0.00 91 1011.3
20260510090522 51 0 0.0 1.7 0.00 0.07 0.00 91 1011.3
20260510090040 51 0 0.0 3.5 0.00 0.07 0.00 91 1011.4
20260510085521 51 360 0.9 4.3 0.00 0.07 0.00 91 1011.3
20260510085021 51 360 0.9 4.3 0.00 0.07 0.00 91 1011.7
20260510084537 51 360 1.7 4.3 0.00 0.07 0.00 91 1011.6
20260510084021 51 0 0.0 3.5 0.00 0.07 0.00 91 1011.2
20260510083522 51 360 0.9 2.6 0.00 0.07 0.00 91 1011.7
20260510083053 51 360 0.9 4.3 0.00 0.07 0.00 90 1011.5
20260510082521 51 360 0.0 4.3 0.00 0.07 0.00 91 1011.3
20260510082022 51 360 1.7 4.3 0.00 0.07 0.00 91 1011.3
20260510081542 51 360 0.0 0.9 0.00 0.07 0.00 90 1010.9
20260510081021 51 0 0.0 0.0 0.00 0.07 0.00 90 1010.8
20260510080522 51 0 0.0 0.0 0.00 0.07 0.00 90 1010.7
20260510080038 52 0 0.0 0.0 0.00 0.07 0.00 90 1010.7
20260510075521 52 0 0.0 1.7 0.00 0.07 0.00 90 1010.6
20260510075022 52 0 0.0 1.7 0.00 0.07 0.00 90 1010.7
20260510074537 52 0 0.0 1.7 0.00 0.07 0.00 90 1010.6
20260510074021 52 0 0.0 1.7 0.00 0.07 0.00 90 1010.5
20260510073521 52 0 0.0 1.7 0.00 0.07 0.00 90 1010.5
20260510073037 52 0 0.9 2.6 0.00 0.07 0.00 90 1010.4
20260510072522 52 0 0.9 4.3 0.00 0.07 0.00 90 1010.5
20260510072026 52 360 0.0 4.3 0.00 0.07 0.00 90 1010.3
20260510071539 52 360 0.9 4.3 0.00 0.07 0.00 90 1010.4
20260510071021 52 360 1.7 4.3 0.00 0.07 0.00 90 1010.4
20260510070521 52 360 0.0 0.9 0.00 0.07 0.00 90 1010.3
20260510070045 52 0 0.0 0.9 0.00 0.07 0.00 90 1010.4
20260510065522 52 0 0.0 1.7 0.00 0.07 0.00 90 1010.5
20260510065026 52 0 0.0 1.7 0.00 0.07 0.00 90 1010.6
20260510064541 52 0 0.0 1.7 0.00 0.07 0.00 90 1010.5
20260510064019 52 360 0.0 1.7 0.00 0.07 0.00 90 1010.4
20260510063522 52 0 0.0 0.0 0.00 0.07 0.00 90 1010.4
20260510063037 52 0 0.0 0.0 0.00 0.07 0.00 90 1010.3
20260510062521 51 0 0.0 0.0 0.00 0.07 0.00 90 1010.2
20260510062021 51 0 0.0 0.0 0.00 0.07 0.00 90 1010.2
20260510061537 51 0 0.0 0.0 0.00 0.07 0.00 89 1010.1
20260510061022 51 0 0.0 0.0 0.00 0.07 0.00 89 1010.2
20260510060522 51 0 0.0 0.0 0.00 0.07 0.00 89 1010.2
20260510060037 51 0 0.0 0.0 0.00 0.07 0.00 89 1010.1
20260510055521 51 0 0.0 0.0 0.00 0.07 0.00 89 1010.2
20260510055021 51 0 0.0 0.0 0.00 0.07 0.00 89 1010.2
20260510054536 50 0 0.0 0.0 0.00 0.07 0.00 89 1010.3
20260510054023 50 0 0.0 0.0 0.00 0.07 0.00 89 1010.3
20260510053521 50 0 0.0 0.0 0.00 0.07 0.00 89 1010.3
20260510053043 50 0 0.0 0.0 0.00 0.07 0.00 89 1010.3
20260510052522 50 0 0.0 0.0 0.00 0.07 0.00 89 1010.3
20260510052022 50 0 0.0 0.0 0.00 0.07 0.00 89 1010.3
20260510051540 50 0 0.0 0.0 0.00 0.07 0.00 89 1010.4
20260510051022 50 0 0.0 0.0 0.00 0.07 0.00 89 1010.3
20260510050521 50 0 0.0 0.0 0.00 0.07 0.00 88 1010.4
20260510050038 50 0 0.0 0.0 0.00 0.07 0.00 88 1010.6
20260510045522 50 0 0.0 0.0 0.00 0.07 0.00 88 1010.5
20260510045022 50 0 0.0 0.0 0.00 0.07 0.00 88 1010.5
20260510044539 50 0 0.0 0.0 0.00 0.07 0.00 88 1010.4
20260510044021 50 0 0.0 0.0 0.00 0.07 0.00 88 1010.6
20260510043521 50 0 0.0 0.0 0.00 0.07 0.00 88 1010.6
20260510043037 50 0 0.0 0.9 0.00 0.07 0.00 88 1010.6
20260510042521 51 0 0.0 0.9 0.00 0.07 0.00 88 1010.6
20260510042024 51 0 0.0 0.9 0.00 0.07 0.00 88 1010.5
20260510041537 51 0 0.0 0.0 0.00 0.07 0.00 88 1010.7
20260510041021 51 0 0.0 0.0 0.00 0.07 0.00 87 1010.6
20260510040521 51 0 0.0 0.0 0.00 0.07 0.00 87 1010.7
20260510040043 51 0 0.0 0.0 0.00 0.07 0.00 87 1010.7
20260510035521 51 0 0.0 0.0 0.00 0.07 0.07 87 1010.6
20260510035022 51 0 0.0 0.0 0.00 0.07 0.07 87 1010.6
20260510034540 51 0 0.0 0.0 0.00 0.07 0.07 87 1010.5
20260510034022 51 0 0.0 0.0 0.00 0.07 0.07 87 1010.3
20260510033520 52 0 0.0 0.0 0.00 0.07 0.07 87 1010.3
20260510033044 52 0 0.0 0.0 0.00 0.07 0.07 87 1010.2
20260510032524 52 0 0.0 0.0 0.00 0.07 0.07 87 1010.3
20260510032022 52 0 0.0 0.0 0.00 0.07 0.07 87 1010.3
20260510031548 52 0 0.0 0.0 0.00 0.07 0.07 87 1010.2
20260510031022 52 0 0.0 0.0 0.00 0.07 0.07 87 1010.2
20260510030521 52 0 0.0 0.0 0.00 0.07 0.07 87 1010.2
20260510030037 52 0 0.0 0.0 0.00 0.07 0.07 87 1010.2
20260510025522 52 0 0.0 0.0 0.00 0.07 0.07 87 1010.1
20260510025021 53 0 0.0 0.0 0.00 0.07 0.07 87 1010.0
20260510024537 53 0 0.0 0.0 0.00 0.07 0.07 87 1010.1
20260510024021 53 0 0.0 0.0 0.00 0.07 0.07 86 1010.1
20260510023524 53 0 0.0 0.0 0.00 0.07 0.07 87 1010.2
20260510023040 53 0 0.0 0.0 0.00 0.07 0.07 86 1010.1
20260510022523 53 0 0.0 0.0 0.00 0.07 0.07 86 1010.2
20260510022022 53 0 0.0 0.0 0.00 0.07 0.07 86 1010.2
20260510021537 54 0 0.0 0.0 0.00 0.07 0.07 87 1010.3
20260510021020 54 0 0.0 0.0 0.00 0.07 0.07 86 1010.2
20260510020521 54 0 0.0 0.0 0.00 0.07 0.07 86 1010.2
20260510020038 54 0 0.0 0.0 0.00 0.07 0.07 86 1010.2
20260510015523 54 0 0.0 0.0 0.00 0.07 0.07 86 1010.1
20260510015021 54 0 0.0 0.0 0.00 0.07 0.07 86 1010.1
20260510014540 54 0 0.0 0.0 0.00 0.07 0.07 86 1010.1
20260510014021 54 0 0.0 0.0 0.00 0.07 0.07 86 1010.2
20260510013521 55 0 0.0 0.0 0.00 0.07 0.07 86 1010.3
20260510013039 55 0 0.0 0.0 0.00 0.07 0.07 86 1010.3
20260510012521 55 0 0.0 0.0 0.00 0.07 0.07 86 1010.2
20260510012021 55 0 0.0 0.0 0.00 0.07 0.07 86 1010.2
20260510011543 55 0 0.0 0.0 0.00 0.07 0.07 86 1010.1
20260510011021 55 0 0.0 0.0 0.00 0.07 0.07 86 1010.0
20260510010522 55 0 0.0 0.0 0.00 0.07 0.07 86 1010.0
20260510010041 55 0 0.0 0.0 0.00 0.07 0.07 86 1010.0
20260510005522 56 0 0.0 0.0 0.00 0.07 0.07 86 1009.9
20260510005025 56 0 0.0 0.0 0.00 0.07 0.07 86 1009.8
20260510004541 56 0 0.0 0.0 0.00 0.07 0.07 86 1009.8
20260510004021 56 0 0.0 0.0 0.00 0.07 0.07 86 1009.7
20260510003521 56 0 0.0 0.0 0.00 0.07 0.07 86 1009.6
20260510003045 56 0 0.0 0.0 0.00 0.07 0.07 86 1009.6
20260510002521 56 0 0.0 0.0 0.00 0.07 0.07 86 1009.6
20260510002021 57 0 0.0 0.0 0.00 0.07 0.07 86 1009.6
20260510001537 57 0 0.0 0.0 0.00 0.07 0.07 86 1009.5
20260510001021 57 0 0.0 0.0 0.00 0.07 0.07 86 1009.6
20260510000522 57 0 0.0 0.0 0.00 0.07 0.07 86 1009.5
20260510000039 57 0 0.0 0.0 0.00 0.07 0.07 86 1009.6
20260509235521 57 0 0.0 0.0 0.00 0.07 0.07 86 1009.6
20260509235021 57 0 0.0 1.7 0.00 0.07 0.07 86 1009.6
20260509234545 57 0 0.0 1.7 0.00 0.07 0.07 86 1009.6
20260509234022 57 0 0.0 1.7 0.00 0.07 0.07 86 1009.6
20260509233520 57 0 0.0 0.9 0.00 0.07 0.07 86 1009.4
20260509233041 57 0 0.0 2.6 0.00 0.07 0.07 86 1009.6
20260509232521 57 0 0.0 2.6 0.00 0.07 0.07 86 1009.5
20260509232025 57 0 0.0 3.5 0.00 0.07 0.07 86 1009.4
20260509231537 57 0 0.0 5.2 0.00 0.07 0.07 86 1009.5
20260509231021 57 109 0.0 5.2 0.00 0.07 0.07 86 1009.3
20260509230521 57 0 0.9 5.2 0.00 0.07 0.07 86 1009.4
20260509230046 57 0 1.7 5.2 0.00 0.07 0.07 87 1009.4
20260509225521 57 0 0.9 5.2 0.00 0.07 0.07 87 1009.6
20260509225020 57 67 0.9 2.6 0.00 0.07 0.07 87 1009.6
20260509224546 57 90 0.0 2.6 0.00 0.07 0.07 87 1009.6
20260509224021 57 360 0.0 2.6 0.00 0.07 0.07 87 1009.6
20260509223522 57 360 0.0 4.3 0.00 0.07 0.07 87 1009.6
20260509223046 57 360 0.0 4.3 0.00 0.07 0.07 87 1009.6
20260509222521 57 0 0.9 4.3 0.00 0.07 0.07 87 1009.5
20260509222021 57 360 1.7 4.3 0.01 0.07 0.07 87 1009.5
20260509221537 57 0 0.0 2.6 0.02 0.07 0.07 87 1009.7
20260509221021 57 0 0.0 2.6 0.03 0.07 0.07 87 1009.7
20260509220521 57 0 0.9 3.5 0.06 0.07 0.07 87 1009.8
20260509220043 57 360 0.9 3.5 0.07 0.07 0.07 86 1009.8
20260509215522 57 360 1.7 3.5 0.07 0.07 0.07 86 1009.9
20260509215021 57 360 0.0 3.5 0.07 0.07 0.07 86 1010.0
20260509214542 57 360 0.0 3.5 0.07 0.07 0.07 86 1010.1
20260509214024 57 360 0.0 3.5 0.07 0.07 0.07 86 1010.1
20260509213521 57 360 1.7 3.5 0.07 0.07 0.07 85 1009.9
20260509213041 57 360 0.9 3.5 0.07 0.07 0.07 85 1009.9
20260509212521 57 0 0.0 2.6 0.07 0.07 0.07 84 1009.9
20260509212023 57 0 0.0 2.6 0.06 0.06 0.06 84 1010.0
20260509211538 57 360 0.0 1.7 0.05 0.05 0.05 84 1009.9
20260509211021 57 0 0.0 1.7 0.04 0.04 0.04 84 1009.9
20260509210521 57 0 0.0 1.7 0.00 0.00 0.00 84 1010.0
20260509210039 57 0 0.0 2.6 0.00 0.00 0.00 83 1009.8
20260509205521 58 0 0.0 2.6 0.00 0.00 0.00 83 1009.9
20260509205021 58 360 0.9 7.0 0.00 0.00 0.00 83 1009.6
20260509204537 58 360 0.0 7.0 0.00 0.00 0.00 83 1009.7
20260509204021 58 360 2.6 7.0 0.00 0.00 0.00 83 1009.7
20260509203518 58 360 1.7 4.3 0.00 0.00 0.00 83 1009.8
20260509203051 58 360 0.9 4.3 0.00 0.00 0.00 83 1009.7